Tracking 28799 objects as of 18-Apr-2024
HD Live streaming from Space Station
objects crossing your sky now

COSMOS 2408

Track COSMOS 2408 now!
10-day predictions
COSMOS 2408 is classified as:


NORAD ID: 28419
Int'l Code: 2004-037A
Perigee: 1,477.6 km
Apogee: 1,502.1 km
Inclination: 82.5 °
Period: 115.6 minutes
Semi major axis: 7860 km
RCS: 0.961 m2 (medium)
Launch date: September 23, 2004
Source: Commonwealth of Independent States (former USSR) (CIS)
Launch site: PLESETSK MISSILE AND SPACE COMPLEX (PKMTR)

Store-dump communications for Russian government and military.
Your satellite tracking list
Your tracking list is empty




NASA's NSSDC Master Catalog

Two Line Element Set (TLE):
1 28419U 04037A   24108.92504870  .00000047  00000-0  25614-3 0  9990
2 28419  82.4793 100.9180 0015562 196.3951 163.6628 12.45651314889516
Source of the keplerian elements: AFSPC